| time (UTC) | temp C | wind direction | speed KPH | gust KPH | rain 1hr cm | rain 24hr cm | rain mn cm | humidity % | barometer mb |
| 20260508110037 | 2 | 180 | 1.6 | 6.4 | 0.00 | 0.10 | 0.03 | 92 | 1017.1 |
| 20260508104541 | 2 | 180 | 3.2 | 6.4 | 0.00 | 0.10 | 0.03 | 92 | 1017.1 |
| 20260508093042 | 3 | 180 | 3.2 | 8.0 | 0.00 | 0.10 | 0.03 | 92 | 1016.7 |
| 20260508091557 | 3 | 180 | 4.8 | 6.4 | 0.00 | 0.10 | 0.03 | 91 | 1016.5 |
| 20260508090041 | 3 | 180 | 3.2 | 6.4 | 0.00 | 0.10 | 0.03 | 92 | 1016.4 |
| 20260508084541 | 3 | 180 | 3.2 | 6.4 | 0.00 | 0.10 | 0.03 | 91 | 1016.4 |
| 20260508083041 | 3 | 180 | 3.2 | 6.4 | 0.00 | 0.10 | 0.03 | 91 | 1016.4 |
| 20260508081553 | 3 | 180 | 3.2 | 6.4 | 0.00 | 0.10 | 0.03 | 91 | 1016.5 |
| 20260508080034 | 3 | 180 | 1.6 | 4.8 | 0.00 | 0.10 | 0.03 | 91 | 1016.4 |
| 20260508074541 | 3 | 180 | 1.6 | 6.4 | 0.00 | 0.13 | 0.03 | 91 | 1016.3 |
| 20260508073045 | 3 | 180 | 3.2 | 6.4 | 0.00 | 0.13 | 0.03 | 91 | 1016.3 |
| 20260508071541 | 3 | 180 | 1.6 | 4.8 | 0.00 | 0.13 | 0.03 | 91 | 1016.1 |
| 20260508070039 | 3 | 180 | 1.6 | 4.8 | 0.00 | 0.13 | 0.03 | 91 | 1016.1 |
| 20260508064542 | 3 | 180 | 1.6 | 6.4 | 0.00 | 0.13 | 0.03 | 91 | 1016.1 |
| 20260508063038 | 4 | 180 | 1.6 | 6.4 | 0.00 | 0.13 | 0.03 | 91 | 1016.3 |
| 20260508061542 | 4 | 180 | 1.6 | 6.4 | 0.00 | 0.13 | 0.03 | 91 | 1016.3 |
| 20260508060054 | 4 | 180 | 1.6 | 4.8 | 0.00 | 0.13 | 0.03 | 90 | 1016.4 |
| 20260508054613 | 4 | 180 | 1.6 | 3.2 | 0.00 | 0.13 | 0.03 | 90 | 1016.3 |
| 20260508053046 | 5 | 0 | 1.6 | 4.8 | 0.03 | 0.13 | 0.03 | 90 | 1016.2 |
| 20260508051541 | 5 | 180 | 1.6 | 3.2 | 0.03 | 0.13 | 0.03 | 90 | 1016.2 |
| 20260508050040 | 5 | 180 | 1.6 | 4.8 | 0.03 | 0.13 | 0.03 | 90 | 1016.2 |
| 20260508044537 | 5 | 0 | 0.0 | 0.0 | 0.03 | 0.13 | 0.03 | 89 | 1016.2 |
| 20260508043041 | 5 | 0 | 0.0 | 0.0 | 0.00 | 0.10 | 0.00 | 89 | 1016.2 |
| 20260508021743 | 8 | 0 | 0.0 | 0.0 | 0.00 | 0.13 | 0.10 | 83 | 1014.9 |
| 20260508001537 | 12 | 0 | 0.0 | 0.0 | 0.00 | 0.13 | 0.10 | 68 | 1013.1 |
| 20260508000038 | 13 | 0 | 0.0 | 0.0 | 0.00 | 0.13 | 0.10 | 64 | 1012.8 |
| 20260507234543 | 13 | 0 | 0.0 | 1.6 | 0.00 | 0.13 | 0.10 | 62 | 1012.5 |
| 20260507233043 | 15 | 0 | 1.6 | 4.8 | 0.00 | 0.13 | 0.10 | 61 | 1012.4 |
| 20260507231545 | 15 | 0 | 0.0 | 4.8 | 0.00 | 0.13 | 0.10 | 58 | 1012.3 |
| 20260507230043 | 16 | 180 | 4.8 | 12.9 | 0.00 | 0.13 | 0.10 | 46 | 1012.3 |
| 20260507224537 | 16 | 180 | 4.8 | 14.5 | 0.00 | 0.15 | 0.10 | 44 | 1012.1 |
| 20260507221723 | 17 | 0 | 0.0 | 9.7 | 0.00 | 0.15 | 0.10 | 49 | 1011.9 |
| 20260507220054 | 17 | 180 | 6.4 | 19.3 | 0.00 | 0.15 | 0.10 | 42 | 1011.7 |
| 20260507211540 | 16 | 180 | 4.8 | 24.1 | 0.00 | 0.15 | 0.10 | 45 | 1011.3 |
| 20260507210043 | 17 | 180 | 4.8 | 16.1 | 0.00 | 0.15 | 0.10 | 49 | 1011.2 |
| 20260507204538 | 16 | 0 | 1.6 | 14.5 | 0.00 | 0.15 | 0.10 | 47 | 1011.0 |
| 20260507203039 | 16 | 180 | 6.4 | 17.7 | 0.00 | 0.15 | 0.10 | 47 | 1011.1 |
| 20260507201542 | 16 | 180 | 0.0 | 17.7 | 0.00 | 0.15 | 0.10 | 54 | 1011.1 |
| 20260507200034 | 16 | 180 | 8.0 | 12.9 | 0.00 | 0.15 | 0.10 | 55 | 1011.4 |
| 20260507194539 | 16 | 180 | 3.2 | 9.7 | 0.00 | 0.15 | 0.10 | 55 | 1011.5 |
| 20260507190037 | 17 | 180 | 4.8 | 12.9 | 0.03 | 0.15 | 0.10 | 50 | 1012.0 |
| 20260507184535 | 17 | 180 | 4.8 | 14.5 | 0.03 | 0.15 | 0.10 | 49 | 1012.2 |
| 20260507183047 | 17 | 180 | 3.2 | 14.5 | 0.00 | 0.13 | 0.08 | 55 | 1012.3 |
| 20260507181543 | 16 | 180 | 1.6 | 16.1 | 0.00 | 0.13 | 0.08 | 54 | 1012.3 |
| 20260507180050 | 15 | 180 | 3.2 | 12.9 | 0.00 | 0.13 | 0.08 | 54 | 1012.7 |
| 20260507174538 | 16 | 180 | 3.2 | 17.7 | 0.00 | 0.15 | 0.08 | 50 | 1012.6 |
| 20260507173046 | 15 | 180 | 1.6 | 16.1 | 0.00 | 0.15 | 0.08 | 52 | 1013.0 |
| 20260507171553 | 15 | 180 | 3.2 | 9.7 | 0.00 | 0.15 | 0.08 | 55 | 1013.2 |
| 20260507170042 | 15 | 180 | 3.2 | 12.9 | 0.00 | 0.15 | 0.08 | 56 | 1013.3 |
| 20260507164547 | 15 | 180 | 3.2 | 12.9 | 0.00 | 0.15 | 0.08 | 56 | 1013.5 |
| 20260507163047 | 15 | 180 | 4.8 | 12.9 | 0.00 | 0.15 | 0.08 | 55 | 1013.6 |
| 20260507161542 | 15 | 180 | 3.2 | 12.9 | 0.00 | 0.15 | 0.08 | 55 | 1013.7 |
| 20260507154542 | 14 | 180 | 1.6 | 9.7 | 0.00 | 0.18 | 0.08 | 63 | 1013.8 |
| 20260507153043 | 13 | 0 | 1.6 | 4.8 | 0.00 | 0.18 | 0.08 | 65 | 1013.8 |
| 20260507151534 | 13 | 180 | 4.8 | 9.7 | 0.00 | 0.18 | 0.08 | 63 | 1013.8 |
| 20260507150041 | 13 | 0 | 0.0 | 4.8 | 0.03 | 0.18 | 0.08 | 70 | 1013.7 |
| 20260507144538 | 12 | 180 | 3.2 | 6.4 | 0.03 | 0.23 | 0.08 | 72 | 1013.9 |
| 20260507143045 | 12 | 0 | 0.0 | 3.2 | 0.03 | 0.23 | 0.08 | 81 | 1013.9 |
| 20260507141543 | 12 | 0 | 1.6 | 3.2 | 0.03 | 0.23 | 0.08 | 83 | 1014.2 |
| 20260507140037 | 11 | 180 | 0.0 | 1.6 | 0.00 | 0.20 | 0.05 | 90 | 1014.2 |
| 20260507134542 | 11 | 0 | 0.0 | 1.6 | 0.00 | 0.25 | 0.05 | 92 | 1014.3 |
| 20260507133042 | 10 | 0 | 0.0 | 1.6 | 0.00 | 0.25 | 0.05 | 93 | 1014.4 |
| 20260507131540 | 11 | 0 | 0.0 | 0.0 | 0.00 | 0.25 | 0.05 | 93 | 1014.5 |
| 20260507130049 | 10 | 0 | 0.0 | 1.6 | 0.00 | 0.25 | 0.05 | 94 | 1014.4 |
| 20260507124547 | 10 | 0 | 0.0 | 1.6 | 0.00 | 0.30 | 0.05 | 94 | 1014.4 |
| 20260507123042 | 10 | 0 | 0.0 | 1.6 | 0.00 | 0.30 | 0.05 | 94 | 1014.2 |
| 20260507121540 | 10 | 0 | 0.0 | 3.2 | 0.03 | 0.30 | 0.05 | 94 | 1014.3 |
| 20260507120039 | 10 | 0 | 0.0 | 3.2 | 0.03 | 0.30 | 0.05 | 93 | 1014.4 |
| 20260507114546 | 10 | 0 | 0.0 | 3.2 | 0.03 | 0.36 | 0.05 | 94 | 1014.4 |
| 20260507113036 | 9 | 0 | 0.0 | 1.6 | 0.03 | 0.36 | 0.05 | 93 | 1014.3 |